User: anonymous   Login
Location: İstanbul
(41.0082°N, 28.9784°E)
Time: 04:24:11
(UTC+02:00)
Language:

CAS-6 - Orbit

View from above orbital plane
View from above orbital plane
View from above satellite
View from above satellite

Ground track
Ground track

The orbit data is extracted from the following two-line orbital elements,

1 44881U 19093C   25339.29400887  .00002471  00000-0  28791-3 0  9991
2 44881  97.7770  51.0921 0013842  10.8229 349.3282 14.86077142322617
Epoch (UTC): 05 December 2025 07:03:22
Eccentricity: 0.0013842
inclination: 97.7770°
perigee height: 600 km
apogee height: 620 km
right ascension of ascending node: 51.0921°
argument of perigee: 10.8229°
revolutions per day: 14.86077142
mean anomaly at epoch: 349.3282°
orbit number at epoch: 32261

The dashed part of the orbit path shows where the satellite is in the earth's shadow,  

DLR